Weather History for EGMH - December, 2011

Change the Weather History Date:

Sunday, December 18, 2011

  Actual Average Record
Temperature  
Mean Temperature 36 °F -  
Max Temperature 39 °F - - ()
Min Temperature 32 °F - - ()
Degree Days  
Heating Degree Days 30    
Moisture  
Dew Point 31 °F    
Average Humidity 83    
Maximum Humidity 100    
Minimum Humidity 67    
Precipitation  
Precipitation 0.02 in - - ()
Sea Level Pressure  
Sea Level Pressure 29.97 in    
Wind  
Wind Speed 15 mph ()    
Max Wind Speed 25 mph    
Max Gust Speed -    
Visibility 7.6 miles    
Events Rain    
T = Trace of Precipitation, MM = Missing Value Source: Averaged Metar Reports

Daily Weather History Graph

Daily Weather History Graph

Search for Another Location

Airport or City:

Trip Planner

Search our weather history database for the weather conditions in past years. The results will help you decide how hot, cold, wet, or windy it might be!

Date:

Astronomy

Dec. 18, 2011 Rise Set
Actual Time 7:55 AM GMT 3:47 PM GMT
Civil Twilight 7:14 AM GMT 4:27 PM GMT
Nautical Twilight 6:31 AM GMT 5:10 PM GMT
Astronomical Twilight 5:51 AM GMT 5:50 PM GMT
Moon No Moon Rise 11:39 AM GMT (12/18)
Length of Visible Light 9h 12m
Length of Day
7h 52m
Last Quarter, 45% of the Moon is Illuminated
Dec 18
Last Quarter
Dec 24
New
Jan 1
First Quarter
Jan 9
Full
Jan 16
Last Quarter

Hourly Weather History & Observations

Time (GMT) Temp. Windchill Dew Point Humidity Pressure Visibility Wind Dir Wind Speed Gust Speed Precip Events Conditions
12:20 AM 35.6 °F 23.7 °F 32.0 °F 87% 29.83 in 6.2 mi NW 24.2 mph - N/A   Scattered Clouds
12:50 AM 35.6 °F 23.4 °F 32.0 °F 87% 29.83 in 6.2 mi NW 25.3 mph - N/A   Partly Cloudy
2:50 AM 36 °F - 31 °F 73% 29.91 in 18 mi NW 20.7 mph - -  
5:50 AM 35 °F - 29 °F 69% 29.96 in 19 mi NW 17.3 mph - -  
6:50 AM 33.8 °F 23.5 °F 28.4 °F 81% 29.95 in 6.2 mi NW 16.1 mph - N/A   Partly Cloudy
7:20 AM 33.8 °F 23.9 °F 28.4 °F 81% 29.95 in 6.2 mi NW 15.0 mph - N/A   Partly Cloudy
7:50 AM 32.0 °F 21.6 °F 28.4 °F 87% 29.98 in 6.2 mi WNW 15.0 mph - N/A   Partly Cloudy
8:20 AM 32.0 °F 22.1 °F 28.4 °F 87% 29.98 in 6.2 mi WNW 13.8 mph - N/A   Partly Cloudy
8:50 AM 32 °F - 28 °F 81% 29.99 in 10 mi West 10.4 mph - -  
8:50 AM 32.0 °F 22.5 °F 28.4 °F 87% 29.98 in 6.2 mi West 12.7 mph - N/A   Partly Cloudy
9:20 AM 32.0 °F 21.6 °F 28.4 °F 87% 29.98 in 6.2 mi West 15.0 mph - N/A   Partly Cloudy
9:50 AM 33.8 °F 24.8 °F 30.2 °F 87% 29.98 in 6.2 mi West 12.7 mph - N/A   Partly Cloudy
10:20 AM 35.6 °F 25.9 °F 32.0 °F 87% 29.98 in 6.2 mi WNW 16.1 mph - N/A   Partly Cloudy
10:50 AM 35.6 °F 26.2 °F 32.0 °F 87% 29.98 in 6.2 mi WNW 15.0 mph - N/A   Partly Cloudy
11:20 AM 35.6 °F 26.6 °F 32.0 °F 87% 29.98 in 6.2 mi West 13.8 mph - N/A   Partly Cloudy
11:50 AM 37 °F - 32 °F 76% 29.99 in 25 mi West 15.0 mph - -   Mostly Cloudy
11:50 AM 35.6 °F 26.6 °F 32.0 °F 87% 29.98 in 6.2 mi West 13.8 mph - N/A   Partly Cloudy
12:20 PM 37.4 °F 28.5 °F 32.0 °F 81% 29.98 in 6.2 mi West 15.0 mph - N/A   Partly Cloudy
12:50 PM 35.6 °F 26.6 °F 32.0 °F 87% 29.98 in 6.2 mi West 13.8 mph - N/A Rain Light Rain Showers
1:20 PM 33.8 °F 25.3 °F 33.8 °F 100% 29.95 in 5.0 mi West 11.5 mph - N/A Rain Light Rain Showers
1:50 PM 35.6 °F 27.5 °F 33.8 °F 93% 29.95 in 6.2 mi West 11.5 mph - N/A   Mostly Cloudy
2:20 PM 37.4 °F 29.8 °F 35.6 °F 93% 29.95 in 6.2 mi West 11.5 mph - N/A   Mostly Cloudy
2:50 PM 39 °F - 35 °F 79% 29.97 in 19 mi WNW 17.3 mph - -   Mostly Cloudy
2:50 PM 37.4 °F 27.5 °F 33.8 °F 87% 29.95 in 6.2 mi WNW 18.4 mph - N/A   Mostly Cloudy
3:20 PM 37.4 °F 27.2 °F 33.8 °F 87% 29.95 in 6.2 mi WNW 19.6 mph - N/A   Mostly Cloudy
3:50 PM 37.4 °F 27.5 °F 33.8 °F 87% 29.95 in 6.2 mi NW 18.4 mph - N/A   Mostly Cloudy
4:20 PM 37.4 °F 27.8 °F 33.8 °F 87% 29.98 in 6.2 mi NW 17.3 mph - N/A   Scattered Clouds
4:50 PM 37.4 °F 28.2 °F 32.0 °F 81% 29.98 in 6.2 mi NW 16.1 mph - N/A   Partly Cloudy
5:20 PM 35.6 °F 25.5 °F 32.0 °F 87% 29.98 in 6.2 mi NW 17.3 mph - N/A   Partly Cloudy
5:50 PM 38 °F - 31 °F 69% 30.01 in 25 mi NW 15.0 mph - -   Scattered Clouds
5:50 PM 37.4 °F 27.5 °F 32.0 °F 81% 30.01 in 6.2 mi NW 18.4 mph - N/A   Partly Cloudy
8:50 PM 36 °F - 29 °F 69% 30.05 in 28 mi NW 15.0 mph - -  
11:50 PM 35 °F - 28 °F 67% 30.07 in 22 mi NW 12.7 mph - -